TimeEST,TemperatureF,Dew PointF,Humidity,Sea Level PressureIn,VisibilityMPH,Wind Direction,Wind SpeedMPH,Gust SpeedMPH,PrecipitationIn,Events,Conditions,WindDirDegrees,DateUTC
12:54 AM,12.9,7.0,77,30.27,10.0,South,5.8,-,N/A,,Overcast,170,2014-01-10 05:54:00
1:54 AM,14.0,8.1,77,30.24,10.0,South,4.6,-,N/A,,Overcast,170,2014-01-10 06:54:00
2:54 AM,15.1,10.0,80,30.23,10.0,SSE,5.8,-,N/A,,Overcast,160,2014-01-10 07:54:00
3:54 AM,16.0,12.0,84,30.20,10.0,South,4.6,-,N/A,,Overcast,170,2014-01-10 08:54:00
4:17 AM,17.1,12.9,84,30.15,10.0,South,6.9,-,N/A,,Overcast,180,2014-01-10 09:17:00
4:30 AM,17.1,12.9,84,30.14,9.0,South,6.9,-,N/A,,Overcast,180,2014-01-10 09:30:00
4:54 AM,17.1,14.0,88,30.18,8.0,South,4.6,-,N/A,,Overcast,180,2014-01-10 09:54:00
5:54 AM,18.0,15.1,88,30.17,8.0,South,3.5,-,N/A,,Overcast,190,2014-01-10 10:54:00
6:54 AM,18.0,15.1,88,30.16,8.0,South,5.8,-,N/A,,Overcast,170,2014-01-10 11:54:00
7:54 AM,19.0,16.0,88,30.15,7.0,South,5.8,-,N/A,,Overcast,180,2014-01-10 12:54:00
8:54 AM,19.9,17.1,89,30.16,5.0,South,8.1,-,N/A,,Overcast,180,2014-01-10 13:54:00
9:39 AM,19.9,18.0,92,30.11,5.0,South,8.1,-,N/A,,Overcast,170,2014-01-10 14:39:00
9:54 AM,21.0,18.0,88,30.15,5.0,South,6.9,-,N/A,,Overcast,180,2014-01-10 14:54:00
10:54 AM,21.9,19.9,92,30.14,4.0,South,8.1,-,N/A,,Overcast,180,2014-01-10 15:54:00
11:54 AM,24.1,21.0,88,30.11,5.0,South,8.1,-,N/A,,Overcast,180,2014-01-10 16:54:00
12:52 PM,26.6,21.2,80,30.02,5.0,South,6.9,-,N/A,,Overcast,170,2014-01-10 17:52:00
12:54 PM,26.1,21.9,84,30.06,5.0,South,8.1,-,N/A,,Overcast,170,2014-01-10 17:54:00
1:54 PM,28.9,24.1,82,30.02,6.0,South,6.9,-,N/A,,Haze,170,2014-01-10 18:54:00
2:54 PM,30.0,25.0,82,29.99,7.0,South,11.5,-,N/A,,Overcast,170,2014-01-10 19:54:00
3:12 PM,30.0,25.0,82,29.94,7.0,SSE,13.8,-,N/A,,Overcast,150,2014-01-10 20:12:00
3:54 PM,30.0,25.0,82,29.98,8.0,South,9.2,-,N/A,,Overcast,170,2014-01-10 20:54:00
4:54 PM,30.9,26.1,82,29.96,8.0,South,11.5,-,N/A,,Overcast,180,2014-01-10 21:54:00
5:54 PM,30.9,28.0,89,29.93,8.0,SSE,9.2,-,N/A,,Overcast,150,2014-01-10 22:54:00
6:54 PM,30.9,28.0,89,29.89,6.0,SE,8.1,-,N/A,,Overcast,130,2014-01-10 23:54:00
7:54 PM,30.9,30.0,96,29.86,4.0,SE,10.4,-,N/A,,Overcast,130,2014-01-11 00:54:00
8:05 PM,30.9,30.0,96,29.82,2.5,SE,8.1,-,0.01,Rain,Light Freezing Rain,130,2014-01-11 01:05:00
8:24 PM,32.0,30.9,96,29.79,2.5,ESE,8.1,-,0.03,Rain,Light Freezing Rain,120,2014-01-11 01:24:00
8:54 PM,32.0,30.9,96,29.80,2.5,SE,10.4,-,0.07,Rain,Light Freezing Rain,130,2014-01-11 01:54:00
9:06 PM,32.0,32.0,100,29.76,3.0,SE,9.2,-,0.01,Rain,Light Freezing Rain,140,2014-01-11 02:06:00
9:22 PM,32.0,32.0,100,29.75,3.0,SE,10.4,-,0.04,,Overcast,140,2014-01-11 02:22:00
9:29 PM,32.0,32.0,100,29.74,3.0,SE,9.2,-,0.05,Rain,Light Freezing Rain,140,2014-01-11 02:29:00
9:36 PM,32.0,32.0,100,29.73,2.5,SE,9.2,-,0.06,Rain,Light Freezing Rain,130,2014-01-11 02:36:00
9:54 PM,32.0,32.0,100,29.75,3.0,SE,8.1,-,0.10,,Overcast,140,2014-01-11 02:54:00
10:54 PM,33.1,32.0,96,29.68,4.0,SE,8.1,-,0.04,Rain,Light Rain,140,2014-01-11 03:54:00
11:54 PM,34.0,33.1,96,29.63,5.0,SSE,11.5,-,0.06,Rain,Light Rain,150,2014-01-11 04:54:00